Cozumel, Mexico

11:06 AM EST on July 24, 2017 (GMT -0500)
Cozumel

Weather History for MMCZ - March, 2013

Change the Weather History Date:

Thursday, March 28, 2013

  Actual Average Record
Temperature  
Mean Temperature 65 °F -  
Max Temperature 73 °F 85 °F 87 °F (1999)
Min Temperature 57 °F 73 °F 57 °F (2013)
Growing Degree Days 15 (Base 50)    
Moisture  
Dew Point 57 °F    
Average Humidity 70    
Maximum Humidity 94    
Minimum Humidity 57    
Precipitation  
Precipitation 0.00 in - - ()
Sea Level Pressure  
Sea Level Pressure 30.16 in    
Wind  
Wind Speed 6 mph ()    
Max Wind Speed 17 mph    
Max Gust Speed 21 mph    
Visibility 7.5 miles    
Events      
Averages and records for this station are not official NWS values.
T = Trace of Precipitation, MM = Missing Value Source: Averaged Metar Reports

Daily Weather History Graph

Daily Weather History Graph

Search for Another Location

Airport or City:

Trip Planner

Search our weather history database for the weather conditions in past years. The results will help you decide how hot, cold, wet, or windy it might be!

Date:

Astronomy

Mar. 28, 2013 Rise Set
Actual Time 5:44 AM CST 6:01 PM CST
Civil Twilight 5:22 AM CST 6:23 PM CST
Nautical Twilight 4:56 AM CST 6:49 PM CST
Astronomical Twilight 4:30 AM CST 7:15 PM CST
Moon 7:33 PM CST (3/28) 6:26 AM CST (3/28)
Length of Visible Light 13h 01m
Length of Day
12h 16m
Full, 98% of the Moon is Illuminated
Mar 28
Full
Apr 2
Last Quarter
Apr 10
New
Apr 18
First Quarter
Apr 25
Full

Hourly Weather History & Observations

Time (CST) Temp. Dew Point Humidity Pressure Visibility Wind Dir Wind Speed Gust Speed Precip Events Conditions
12:41 AM 66.2 °F 57.2 °F 73% 30.17 in 7.0 mi ENE 5.8 mph - N/A   Partly Cloudy
1:43 AM 64.4 °F 57.2 °F 77% 30.14 in 7.0 mi Calm Calm - N/A   Partly Cloudy
3:51 AM 60.8 °F 57.2 °F 88% 30.12 in 7.0 mi Calm Calm - N/A   Partly Cloudy
4:43 AM 59.0 °F 57.2 °F 94% 30.14 in 7.0 mi Calm Calm - N/A   Partly Cloudy
5:47 AM 57.2 °F 55.4 °F 94% 30.09 in 7.0 mi Calm Calm - N/A   Partly Cloudy
6:46 AM 62.6 °F 59.0 °F 88% 30.16 in 7.0 mi Calm Calm - N/A   Scattered Clouds
7:41 AM 69.8 °F 60.8 °F 73% 30.18 in 8.0 mi ENE 12.7 mph - N/A   Scattered Clouds
8:40 AM 73.4 °F 59.0 °F 61% 30.23 in 8.0 mi NNE 9.2 mph - N/A   Scattered Clouds
9:41 AM 73.4 °F 59.0 °F 61% 30.21 in 8.0 mi NE 16.1 mph - N/A   Scattered Clouds
10:45 AM 73.4 °F 57.2 °F 57% 30.20 in 8.0 mi NE 9.2 mph - N/A   Mostly Cloudy
11:44 AM 73.4 °F 57.2 °F 57% 30.16 in 8.0 mi East 13.8 mph - N/A   Scattered Clouds
12:45 PM 73.4 °F 57.2 °F 57% 30.16 in 8.0 mi East 13.8 mph - N/A   Scattered Clouds
1:41 PM 73.4 °F 59.0 °F 61% 30.14 in 8.0 mi NE 16.1 mph - N/A   Scattered Clouds
2:40 PM 73.4 °F 57.2 °F 57% 30.15 in 8.0 mi NE 9.2 mph 20.7 mph N/A   Scattered Clouds
3:40 PM 71.6 °F 59.0 °F 64% 30.12 in 8.0 mi ENE 8.1 mph 19.6 mph N/A   Scattered Clouds
4:40 PM 69.8 °F 57.2 °F 64% 30.12 in 8.0 mi ENE 17.3 mph - N/A   Scattered Clouds
5:40 PM 68.0 °F 57.2 °F 68% 30.09 in 8.0 mi ENE 9.2 mph - N/A   Scattered Clouds
6:42 PM 66.2 °F 57.2 °F 73% 30.14 in 7.0 mi ENE 8.1 mph - N/A   Scattered Clouds
7:41 PM 68.0 °F 57.2 °F 68% 30.17 in 7.0 mi NE 9.2 mph - N/A   Mostly Cloudy
8:44 PM 66.2 °F 55.4 °F 68% 30.21 in 7.0 mi ENE 8.1 mph - N/A   Scattered Clouds
9:45 PM 66.2 °F 55.4 °F 68% 30.18 in 7.0 mi ENE 9.2 mph - N/A   Scattered Clouds
10:45 PM 66.2 °F 55.4 °F 68% 30.18 in 7.0 mi ENE 6.9 mph 18.4 mph N/A   Partly Cloudy
11:48 PM 66.2 °F 55.4 °F 68% 30.13 in 7.0 mi East 4.6 mph - N/A   Partly Cloudy